User: anonymous   Login
Location: Unspecified
(0.0000°N, 0.0000°E)
Time: 01:37:16
(UTC+00:00)
Language:

Alouette 1 - Orbit

View from above orbital plane
View from above orbital plane
View from above satellite
View from above satellite

Ground track
Ground track

The orbit data is extracted from the following two-line orbital elements,

1 00424U 62049A   14294.75078674  .00000108  00000-0  11390-3 0  5470
2 00424 080.4651 145.5480 0023547 055.5445 018.7719 13.68963694598822
Epoch (UTC): 21 October 2014 18:01:07
Eccentricity: 0.0023547
inclination: 80.4651°
perigee height: 986 km
apogee height: 1020 km
right ascension of ascending node: 145.5480°
argument of perigee: 55.5445°
revolutions per day: 13.68963694
mean anomaly at epoch: 18.7719°
orbit number at epoch: 59882

The dashed part of the orbit path shows where the satellite is in the earth's shadow,  

DLR